STARLINK-3977 (52640 NORAD) Tracking and Keplerian Element Data

This shows tracking and keplerian element data for the satellite.

Feedback or suggestion? Click here.




ElementValue
Catalog52640
NameSTARLINK-3977
Epoch Orbit130
Epoch Day167.08334491
Epoch Year2022
RAAN279.9973
Inclination53.2135
Eccentricity0.0001701
Argument of Perigee30.9227
Mean Anonmoly8.1732
Mean Motion15.73205318
Decay Rate7.212E-05
L11 52640U 22052AU 22167.08334491 .00007212 00000+0 55752-4 0 9997
L22 52640 53.2135 279.9973 0001701 30.9227 8.1732 15.73205318 1306

Live tracking and technical data element details for STARLINK-3977 (NORAD 52640). STARLINK-3977 can be tracked NOW for your location showing map with azimuth and elevation plus other details from your city location.

Track the satellite on the map from your city or location and see movement details for azimuth, elevation, latitude, longitude, range, height, and movement on the map or in text.







IsCatalogInMostPopularTable: catalog: 52640, numindb: 1
Update: records affected: 1



GetName: 52640 STARLINK-3977

Hit Count: updated at: Sat, 25 Jun 2022 04:44:10 GMT